Weather in Lagos

Nigeria     6˚38′28″N   3˚18′34″E
temp.,
°C
wind,
m/s
gust,
m/s
humid.,
%
clouds,
%
prec.,
mm/h
press.,
hPa
HPBL,
m
28 november, sat
sat2801:00+26˚wsw268648 1.8 1011349
04:00+25˚wsw2586100 2.4 1010259
07:00+25˚wnw2388100 2.6 1011159
10:00+30˚wsw226293 0.0 1013639
13:00+36˚ne024074 0.0 10101746
16:00+33˚s335196 0.6 10081241
19:00+28˚ssw467178 1.3 1009454
22:00+27˚sw368166 0.0 1012391
29 november, sun
sun2901:00+26˚wsw268536 0.0 1011343
04:00+25˚wsw248910 0.0 1010296
07:00+25˚sw249035 0.0 1011296
10:00+30˚wsw226459 0.0 1012862
13:00+36˚sse124347 0.1 10091669
16:00+32˚ssw445741 0.8 1007739
19:00+28˚ssw477545 1.9 1008407
22:00+27˚ssw48811 0.0 1010403
30 november, mon
mon3001:00+26˚sw13861 0.0 1010345
04:00+26˚wsw248563 0.1 1010339
07:00+26˚wsw248767 0.1 1011236
10:00+30˚wsw216675 0.1 1013873
13:00+36˚s114363 0.1 10111675
16:00+33˚ssw334711 0.3 10091549
19:00+29˚ssw466944 0.4 1010548
22:00+27˚ssw3776100 0.0 1011447
1 december, tue
tue101:00+26˚sw248358 0.0 1011339
04:00+26˚wsw238755 0.1 1010349
07:00+26˚wsw238773 0.3 1011263
10:00+30˚ssw226565 0.4 1012897
13:00+33˚ssw225257 1.4 10101392
16:00+31˚ssw226271 1.7 1009994
19:00+27˚sw367751 2.6 1010459
22:00+27˚ssw37820 0.0 1012414
2 december, wed
wed201:00+26˚sw36860 0.0 1011399
04:00+25˚wsw268922 0.0 1010376
07:00+25˚wnw248839 0.1 1011263
10:00+29˚w227076 0.1 1012679
13:00+33˚wsw115268 0.3 10101378
16:00+32˚sw325672 1.3 10081176
19:00+28˚ssw467251 1.6 1009470
22:00+27˚ssw38790 0.0 1011473